H1 CPF 2 NER 2025 9 13 9 256 01 glonass146 H2 2216101 9146 54377 2025 9 13 0 0 0 2025 9 16 23 45 0 900 1 1 0 0 0 1 H9 10 0 60931 0.00000 0 -2493969.144 -13200512.371 21704856.120 10 0 60931 900.00000 0 -99836.030 -11889260.358 22585105.447 10 0 60931 1800.00000 0 2458574.905 -10723887.376 23027546.205 10 0 60931 2700.00000 0 5121109.739 -9739577.279 23023468.622 10 0 60931 3600.00000 0 7822104.607 -8960512.656 22572799.623 10 0 60931 4500.00000 0 10492878.290 -8398948.572 21684116.014 10 0 60931 5400.00000 0 13064361.691 -8054801.722 20374492.132 10 0 60931 6300.00000 0 15469756.328 -7915772.681 18669183.711 10 0 60931 7200.00000 0 17647112.222 -7957996.746 16601152.724 10 0 60931 8100.00000 0 19541718.292 -8147196.757 14210440.976 10 0 60931 9000.00000 0 21108205.601 -8440290.025 11543403.284 10 0 60931 9900.00000 0 22312275.136 -8787382.084 8651814.059 10 0 60931 10800.00000 0 23131977.204 -9134063.243 5591863.962 10 0 60931 11700.00000 0 23558488.016 -9423910.544 2423065.851 10 0 60931 12600.00000 0 23596350.111 -9601088.539 -792908.424 10 0 60931 13500.00000 0 23263166.029 -9612937.577 -3993437.082 10 0 60931 14400.00000 0 22588757.906 -9412438.420 -7116178.755 10 0 60931 15300.00000 0 21613828.598 -8960447.074 -10100298.808 10 0 60931 16200.00000 0 20388181.367 -8227603.309 -12887666.402 10 0 60931 17100.00000 0 18968574.057 -7195830.378 -15423997.616 10 0 60931 18000.00000 0 17416299.349 -5859360.919 -17659921.229 10 0 60931 18900.00000 0 15794594.195 -4225244.407 -19551945.572 10 0 60931 19800.00000 0 14165988.575 -2313313.775 -21063307.178 10 0 60931 20700.00000 0 12589705.917 -155611.853 -22164684.630 10 0 60931 21600.00000 0 11119224.901 2204698.668 -22834764.024 10 0 60931 22500.00000 0 9800104.966 4714896.383 -23060645.649 10 0 60931 23400.00000 0 8668166.320 7314668.188 -22838084.782 10 0 60931 24300.00000 0 7748099.765 9938400.098 -22171562.819 10 0 60931 25200.00000 0 7052563.277 12517696.483 -21074188.304 10 0 60931 26100.00000 0 6581801.537 14984022.932 -19567430.620 10 0 60931 27000.00000 0 6323802.551 17271363.128 -17680692.281 10 0 60931 27900.00000 0 6254982.897 19318779.696 -15450728.688 10 0 60931 28800.00000 0 6341371.025 21072773.196 -12920927.104 10 0 60931 29700.00000 0 6540237.301 22489341.985 -10140459.138 10 0 60931 30600.00000 0 6802100.869 23535658.278 -7163323.352 10 0 60931 31500.00000 0 7073027.834 24191291.757 -4047296.732 10 0 60931 32400.00000 0 7297123.259 24448930.999 -852815.325 10 0 60931 33300.00000 0 7419111.511 24314573.912 2358194.317 10 0 60931 34200.00000 0 7386896.053 23807180.418 5523510.367 10 0 60931 35100.00000 0 7153990.751 22957802.982 8581814.767 10 0 60931 36000.00000 0 6681720.330 21808232.090 11473873.290 10 0 60931 36900.00000 0 5941097.335 20409213.847 14143674.264 10 0 60931 37800.00000 0 4914296.487 18818314.356 16539504.632 10 0 60931 38700.00000 0 3595664.104 17097519.936 18614943.300 10 0 60931 39600.00000 0 1992219.462 15310672.955 20329753.356 10 0 60931 40500.00000 0 123625.985 13520849.637 21650656.725 10 0 60931 41400.00000 0 -1978368.100 11787788.325 22551976.943 10 0 60931 42300.00000 0 -4270998.109 10165474.664 23016138.115 10 0 60931 43200.00000 0 -6702017.860 8699983.500 23034010.569 10 0 60931 44100.00000 0 -9211639.529 7427666.849 22605096.392 10 0 60931 45000.00000 0 -11734799.866 6373763.127 21737550.702 10 0 60931 45900.00000 0 -14203660.455 5551485.516 20448037.376 10 0 60931 46800.00000 0 -16550239.669 4961627.663 18761420.835 10 0 60931 47700.00000 0 -18709067.891 4592703.547 16710298.513 10 0 60931 48600.00000 0 -20619756.021 4421616.037 14334381.641 10 0 60931 49500.00000 0 -22229370.255 4414826.515 11679735.020 10 0 60931 50400.00000 0 -23494513.504 4529976.618 8797889.489 10 0 60931 51300.00000 0 -24383025.642 4717893.811 5744843.572 10 0 60931 52200.00000 0 -24875230.355 4924895.807 2579973.439 10 0 60931 53100.00000 0 -24964675.227 5095295.697 -635127.402 10 0 60931 54000.00000 0 -24658333.073 5174000.696 -3837855.461 10 0 60931 54900.00000 0 -23976255.431 5109092.962 -6965827.139 10 0 60931 55800.00000 0 -22950692.539 4854281.464 -9958105.847 10 0 60931 56700.00000 0 -21624717.033 4371119.207 -12756401.091 10 0 60931 57600.00000 0 -20050409.867 3630890.102 -15306214.832 10 0 60931 58500.00000 0 -18286685.690 2616084.010 -17557911.585 10 0 60931 59400.00000 0 -16396850.207 1321396.167 -19467690.625 10 0 60931 60300.00000 0 -14445993.191 -245792.329 -20998440.853 10 0 60931 61200.00000 0 -12498327.571 -2065474.018 -22120461.619 10 0 60931 62100.00000 0 -10614586.748 -4105612.660 -22812035.754 10 0 60931 63000.00000 0 -8849589.401 -6323254.103 -23059844.246 10 0 60931 63900.00000 0 -7250073.441 -8666104.063 -22859215.290 10 0 60931 64800.00000 0 -5852888.951 -11074506.865 -22214203.788 10 0 60931 65700.00000 0 -4683624.414 -13483742.556 -21137500.661 10 0 60931 66600.00000 0 -3755722.080 -15826546.594 -19650174.616 10 0 60931 67500.00000 0 -3070117.532 -18035747.277 -17781252.133 10 0 60931 68400.00000 0 -2615416.460 -20046911.318 -15567144.424 10 0 60931 69300.00000 0 -2368599.154 -21800887.813 -13050932.960 10 0 60931 70200.00000 0 -2296221.160 -23246145.216 -10281527.760 10 0 60931 71100.00000 0 -2356057.928 -24340804.737 -7312714.954 10 0 60931 72000.00000 0 -2499122.823 -25054286.228 -4202112.234 10 0 60931 72900.00000 0 -2671972.463 -25368498.912 -1010052.462 10 0 60931 73800.00000 0 -2819201.508 -25278528.256 2201583.007 10 0 60931 74700.00000 0 -2886021.323 -24792791.273 5370558.791 10 0 60931 75600.00000 0 -2820813.642 -23932654.650 8435484.876 10 0 60931 76500.00000 0 -2577551.584 -22731532.304 11336998.138 10 0 60931 77400.00000 0 -2117986.081 -21233500.512 14018903.598 10 0 60931 78300.00000 0 -1413505.648 -19491488.559 16429254.017 10 0 60931 79200.00000 0 -446591.109 -17565120.223 18521347.744 10 0 60931 80100.00000 0 788196.341 -15518295.650 20254626.269 10 0 60931 81000.00000 0 2283735.999 -13416613.659 21595454.982 10 0 60931 81900.00000 0 4020398.795 -11324740.891 22517772.721 10 0 60931 82800.00000 0 5966628.191 -9303836.355 23003597.997 10 0 60931 83700.00000 0 8080028.548 -7409137.531 23043382.359 10 0 60931 84600.00000 0 10308917.716 -5687807.603 22636203.878 10 0 60931 85500.00000 0 12594281.338 -4177132.792 21789796.515 10 0 60932 0.00000 0 14872049.325 -2903144.521 20520414.052 10 0 60932 900.00000 0 17075602.688 -1879723.065 18852529.314 10 0 60932 1800.00000 0 19138404.568 -1108221.811 16818374.926 10 0 60932 2700.00000 0 20996650.637 -577625.771 14457330.851 10 0 60932 3600.00000 0 22591825.439 -265239.703 11815170.840 10 0 60932 4500.00000 0 23873058.744 -137876.406 8943180.734 10 0 60932 5400.00000 0 24799182.318 -153495.290 5897165.107 10 0 60932 6300.00000 0 25340399.830 -263221.848 2736361.238 10 0 60932 7200.00000 0 25479498.534 -413662.119 -477718.272 10 0 60932 8100.00000 0 25212550.627 -549413.237 -3682491.067 10 0 60932 9000.00000 0 24549073.708 -615662.453 -6815534.358 10 0 60932 9900.00000 0 23511642.933 -560762.918 -9815812.726 10 0 60932 10800.00000 0 22134970.854 -338675.343 -12624879.133 10 0 60932 11700.00000 0 20464493.791 88829.690 -15188024.423 10 0 60932 12600.00000 0 18554524.692 750303.660 -17455351.699 10 0 60932 13500.00000 0 16466050.868 1663166.799 -19382753.829 10 0 60932 14400.00000 0 14264269.945 2832732.124 -20932774.530 10 0 60932 15300.00000 0 12015968.223 4251748.862 -22075336.142 10 0 60932 16200.00000 0 9786851.935 5900485.116 -22788320.201 10 0 60932 17100.00000 0 7638943.348 7747346.611 -23057990.084 10 0 60932 18000.00000 0 5628150.493 9750005.680 -22879248.273 10 0 60932 18900.00000 0 3802111.439 11856993.192 -22255724.163 10 0 60932 19800.00000 0 2198402.002 14009686.755 -21199691.627 10 0 60932 20700.00000 0 843180.253 16144612.009 -19731818.818 10 0 60932 21600.00000 0 -249677.486 18195960.931 -17880755.836 10 0 60932 22500.00000 0 -1078915.180 20098222.136 -15682568.872 10 0 60932 23400.00000 0 -1655698.220 21788813.655 -13180032.304 10 0 60932 24300.00000 0 -2002887.721 23210608.687 -10421792.803 10 0 60932 25200.00000 0 -2153820.490 24314249.433 -7461421.874 10 0 60932 26100.00000 0 -2150647.695 25060153.045 -4356375.339 10 0 60932 27000.00000 0 -2042303.586 25420126.611 -1166879.969 10 0 60932 27900.00000 0 -1882190.820 25378524.485 2045231.234 10 0 60932 28800.00000 0 -1725680.672 24932900.323 5217712.656 10 0 60932 29700.00000 0 -1627533.813 24094127.250 8289105.735 10 0 60932 30600.00000 0 -1639350.505 22885981.611 11199921.846 10 0 60932 31500.00000 0 -1807157.607 21344207.992 13893786.021 10 0 60932 32400.00000 0 -2169233.931 19515104.543 16318520.020 10 0 60932 33300.00000 0 -2754265.436 17453687.329 18427144.605 10 0 60932 34200.00000 0 -3579908.024 15221509.623 20178782.406 10 0 60932 35100.00000 0 -4651818.801 12884226.146 21539444.734 10 0 60932 36000.00000 0 -5963197.287 10509002.510 22482687.835 10 0 60932 36900.00000 0 -7494857.117 8161876.456 22990126.361 10 0 60932 37800.00000 0 -9215826.856 5905179.401 23051794.356 10 0 60932 38700.00000 0 -11084456.818 3795124.294 22666346.654 10 0 60932 39600.00000 0 -13049987.716 1879659.199 21841096.279 10 0 60932 40500.00000 0 -15054517.797 196675.163 20591886.292 10 0 60932 41400.00000 0 -17035288.266 -1227357.462 18942797.403 10 0 60932 42300.00000 0 -18927193.111 -2378267.519 16925695.683 10 0 60932 43200.00000 0 -20665409.587 -3254539.682 14579627.730 10 0 60932 44100.00000 0 -22188039.877 -3867134.185 11950073.664 10 0 60932 45000.00000 0 -23438653.251 -4238777.058 9088071.379 10 0 60932 45900.00000 0 -24368621.588 -4402750.711 6049228.274 10 0 60932 46800.00000 0 -24939149.170 -4401236.006 2892639.334 10 0 60932 47700.00000 0 -25122910.152 -4283276.281 -320267.219 10 0 60932 48600.00000 0 -24905223.401 -4102450.252 -3526933.642 10 0 60932 49500.00000 0 -24284713.867 -3914353.426 -6664901.379 10 0 60932 50400.00000 0 -23273431.558 -3773996.164 -9673039.493 10 0 60932 51300.00000 0 -21896422.303 -3733230.286 -12492747.566 10 0 60932 52200.00000 0 -20190768.002 -3838314.950 -15069108.266 10 0 60932 53100.00000 0 -18204136.809 -4127726.546 -17351965.927 10 0 60932 54000.00000 0 -15992904.517 -4630306.741 -19296909.274 10 0 60932 54900.00000 0 -13619926.621 -5363828.190 -20866138.626 10 0 60932 55800.00000 0 -11152055.128 -6334039.335 -22029200.555 10 0 60932 56700.00000 0 -8657504.662 -7534229.161 -22763575.958 10 0 60932 57600.00000 0 -6203178.332 -8945330.495 -23055110.663 10 0 60932 58500.00000 0 -3852065.089 -10536557.573 -22898280.942 10 0 60932 59400.00000 0 -1660816.739 -12266550.973 -22296289.690 10 0 60932 60300.00000 0 322395.223 -14084981.754 -21260992.322 10 0 60932 61200.00000 0 2059654.905 -15934547.346 -19812654.687 10 0 60932 62100.00000 0 3524637.139 -17753275.542 -17979548.503 10 0 60932 63000.00000 0 4703448.762 -19477040.098 -15797392.756 10 0 60932 63900.00000 0 5594943.157 -21042182.804 -13308652.421 10 0 60932 64800.00000 0 6210497.203 -22388132.548 -10561708.446 10 0 60932 65700.00000 0 6573262.233 -23459912.158 -7609915.312 10 0 60932 66600.00000 0 6716922.460 -24210428.582 -4510564.590 10 0 60932 67500.00000 0 6684014.768 -24602451.106 -1323774.627 10 0 60932 68400.00000 0 6523881.943 -24610195.410 1888672.199 10 0 60932 69300.00000 0 6290346.454 -24220447.678 5064522.236 10 0 60932 70200.00000 0 6039203.421 -23433182.249 8142250.464 10 0 60932 71100.00000 0 5825638.619 -22261647.265 11062244.762 10 0 60932 72000.00000 0 5701680.348 -20731914.873 13767952.051 10 0 60932 72900.00000 0 5713792.319 -18881914.648 16206964.834 10 0 60932 73800.00000 0 5900708.695 -16759990.109 18332027.874 10 0 60932 74700.00000 0 6291602.285 -14423037.821 20101946.328 10 0 60932 75600.00000 0 6904662.975 -11934305.555 21482378.601 10 0 60932 76500.00000 0 7746146.554 -9360939.896 22446499.281 10 0 60932 77400.00000 0 8809934.661 -6771383.868 22975519.841 10 0 60932 78300.00000 0 10077625.525 -4232731.318 23059057.263 10 0 60932 79200.00000 0 11519153.313 -1808146.532 22695343.347 10 0 60932 80100.00000 0 13093912.011 445544.855 21891270.170 10 0 60932 81000.00000 0 14752338.798 2479994.515 20662269.992 10 0 60932 81900.00000 0 16437892.618 4257111.372 19032030.790 10 0 60932 82800.00000 0 18089346.818 5750409.040 17032051.590 10 0 60932 83700.00000 0 19643301.169 6945864.693 14701044.842 10 0 60932 84600.00000 0 21036808.820 7842253.430 12084196.032 10 0 60932 85500.00000 0 22210008.150 8450943.995 9232293.845 10 0 60933 0.00000 0 23108648.597 8795164.369 6200747.240 10 0 60933 900.00000 0 23686403.811 8908768.368 3048506.532 10 0 60933 1800.00000 0 23906872.349 8834555.209 -163086.283 10 0 60933 2700.00000 0 23745181.775 8622214.272 -3371500.434 10 0 60933 3600.00000 0 23189125.698 8325982.477 -6514244.131 10 0 60933 4500.00000 0 22239784.940 8002114.953 -9530093.559 10 0 60933 5400.00000 0 20911605.353 7706277.582 -12360297.571 10 0 60933 6300.00000 0 19231928.199 7490973.494 -14949733.261 10 0 60933 7200.00000 0 17239992.419 7403114.058 -17247988.696 10 0 60933 8100.00000 0 14985450.693 7481838.631 -19210350.817 10 0 60933 9000.00000 0 12526461.807 7756676.427 -20798678.759 10 0 60933 9900.00000 0 9927439.731 8246129.029 -21982145.381 10 0 60933 10800.00000 0 7256554.086 8956733.856 -22737832.818 10 0 60933 11700.00000 0 4583086.758 9882648.246 -23051171.002 10 0 60933 12600.00000 0 1974755.164 11005771.573 -22916211.379 10 0 60933 13500.00000 0 -504886.503 12296399.963 -22335731.386 10 0 60933 14400.00000 0 -2798860.435 13714385.721 -21321168.609 10 0 60933 15300.00000 0 -4858893.303 15210752.367 -19892386.786 10 0 60933 16200.00000 0 -6647172.156 16729697.148 -18077278.960 10 0 60933 17100.00000 0 -8137656.810 18210896.803 -15911216.145 10 0 60933 18000.00000 0 -9316896.066 19592019.735 -13436352.704 10 0 60933 18900.00000 0 -10184315.951 20811339.313 -10700802.239 10 0 60933 19800.00000 0 -10751970.191 21810338.889 -7757700.228 10 0 60933 20700.00000 0 -11043765.553 22536199.579 -4664171.703 10 0 60933 21600.00000 0 -11094196.479 22944066.876 -1480224.046 10 0 60933 22500.00000 0 -10946643.801 22999001.469 1732413.739 10 0 60933 23400.00000 0 -10651310.284 22677532.884 4911482.850 10 0 60933 24300.00000 0 -10262880.768 21968751.185 7995394.815 10 0 60933 25200.00000 0 -9838005.802 20874891.196 10924417.067 10 0 60933 26100.00000 0 -9432714.900 19411384.810 13641821.474 10 0 60933 27000.00000 0 -9099868.142 17606378.927 16094974.285 10 0 60933 27900.00000 0 -8886753.097 15499738.614 18236347.172 10 0 60933 28800.00000 0 -8832927.814 13141576.227 20024430.573 10 0 60933 29700.00000 0 -8968400.365 10590366.609 21424532.529 10 0 60933 30600.00000 0 -9312221.397 7910725.433 22409448.252 10 0 60933 31500.00000 0 -9871549.139 5170941.469 22959987.989 10 0 60933 32400.00000 0 -10641226.801 2440363.707 23065353.216 10 0 60933 33300.00000 0 -11603891.212 -213249.827 22723353.806 10 0 60933 34200.00000 0 -12730609.576 -2726312.835 21940461.490 10 0 60933 35100.00000 0 -13982019.368 -5041815.144 20731697.776 10 0 60933 36000.00000 0 -15309925.347 -7111451.680 19120357.376 10 0 60933 36900.00000 0 -16659288.389 -8897387.952 17137571.177 10 0 60933 37800.00000 0 -17970524.119 -10373588.748 14821715.824 10 0 60933 38700.00000 0 -19182015.815 -11526654.566 12217680.017 10 0 60933 39600.00000 0 -20232736.417 -12356130.669 9376000.647 10 0 60933 40500.00000 0 -21064869.224 -12874275.635 6351884.736 10 0 60933 41400.00000 0 -21626316.259 -13105299.131 3204135.809 10 0 60933 42300.00000 0 -21872987.407 -13084101.131 -5994.297 10 0 60933 43200.00000 0 -21770772.282 -12854566.255 -3216005.313 10 0 60933 44100.00000 0 -21297109.984 -12467486.072 -6363375.806 10 0 60933 45000.00000 0 -20442088.797 -11978198.317 -9386792.675 10 0 60933 45900.00000 0 -19209027.961 -11444044.308 -12227357.566 10 0 60933 46800.00000 0 -17614515.750 -10921753.672 -14829745.376 10 0 60933 47700.00000 0 -15687901.421 -10464868.604 -17143291.022 10 0 60933 48600.00000 0 -13470261.919 -10121318.029 -19122982.426 10 0 60933 49500.00000 0 -11012886.599 -9931245.386 -20730339.817 10 0 60933 50400.00000 0 -8375343.638 -9925182.634 -21934164.035 10 0 60933 51300.00000 0 -5623209.335 -10122647.996 -22711139.496 10 0 60933 52200.00000 0 -2825555.414 -10531226.625 -23046280.605 10 0 60933 53100.00000 0 -52299.365 -11146172.696 -22933213.683 10 0 60933 54000.00000 0 2628471.897 -11950549.139 -22374289.818 10 0 60933 54900.00000 0 5153094.058 -12915898.495 -21380527.367 10 0 60933 55800.00000 0 7464726.006 -14003415.971 -19971386.120 10 0 60933 56700.00000 0 9515460.334 -15165574.722 -18174378.275 10 0 60933 57600.00000 0 11268057.440 -16348134.517 -16024524.442 10 0 60933 58500.00000 0 12697232.813 -17492448.980 -13563665.717 10 0 60933 59400.00000 0 13790445.909 -18537974.230 -10839645.548 10 0 60933 60300.00000 0 14548159.837 -19424873.511 -7905377.484 10 0 60933 61200.00000 0 14983563.149 -20096608.425 -4817817.039 10 0 60933 62100.00000 0 15121767.406 -20502408.148 -1636857.639 10 0 60933 63000.00000 0 14998515.942 -20599513.177 1575827.994 10 0 60933 63900.00000 0 14658459.471 -20355099.682 4757978.695 10 0 60933 64800.00000 0 14153072.076 -19747803.919 7847945.124 10 0 60933 65700.00000 0 13538295.832 -18768782.887 10785876.584 10 0 60933 66600.00000 0 12872013.424 -17422266.688 13514871.915 10 0 60933 67500.00000 0 12211454.975 -15725579.170 15982072.818 10 0 60933 68400.00000 0 11610647.823 -13708625.329 18139679.226 10 0 60933 69300.00000 0 11118015.988 -11412865.968 19945867.880 10 0 60933 70200.00000 0 10774229.729 -8889821.097 21365597.147 10 0 60933 71100.00000 0 10610395.126 -6199162.865 22371283.229 10 0 60933 72000.00000 0 10646659.588 -3406475.636 22943335.217 10 0 60933 72900.00000 0 10891291.963 -580774.477 23070538.882 10 0 60933 73800.00000 0 11340276.451 2208116.743 22750281.732 10 0 60933 74700.00000 0 11977438.277 4892220.395 21988614.503 10 0 60933 75600.00000 0 12775097.102 7407984.478 20800147.133 10 0 60933 76500.00000 0 13695222.202 9698680.300 19207780.109 10 0 60933 77400.00000 0 14691042.409 11716519.422 17242275.074 10 0 60933 78300.00000 0 15709044.496 13424402.084 14941671.646 10 0 60933 79200.00000 0 16691277.065 14797224.245 12350560.378 10 0 60933 80100.00000 0 17577863.559 15822688.410 9519224.839 10 0 60933 81000.00000 0 18309618.616 16501584.035 6502668.704 10 0 60933 81900.00000 0 18830656.966 16847525.546 3359546.286 10 0 60933 82800.00000 0 19090883.797 16886158.888 151017.479 10 0 60933 83700.00000 0 19048260.006 16653870.298 -3060450.136 10 0 60933 84600.00000 0 18670744.975 16196052.283 -6212307.757 10 0 60933 85500.00000 0 17937833.037 15565000.944 -9243155.301 10 0 60934 0.00000 0 16841617.099 14817534.749 -12093949.237 10 0 60934 900.00000 0 15387332.397 14012436.416 -14709164.960 10 0 60934 1800.00000 0 13593357.756 13207828.498 -17037886.045 10 0 60934 2700.00000 0 11490671.512 12458593.689 -19034803.315 10 0 60934 3600.00000 0 9121785.828 11813950.919 -20661099.877 10 0 60934 4500.00000 0 6539203.390 11315290.072 -21885206.184 10 0 60934 5400.00000 0 3803461.246 10994357.140 -22683410.398 10 0 60934 6300.00000 0 980843.642 10871866.327 -23040312.661 10 0 60934 7200.00000 0 -1859140.550 10956597.195 -22949115.179 10 0 60934 8100.00000 0 -4646410.701 11245014.129 -22411743.374 10 0 60934 9000.00000 0 -7312987.444 11721423.235 -21438796.667 10 0 60934 9900.00000 0 -9795575.148 12358658.986 -20049330.763 10 0 60934 10800.00000 0 -12037947.337 13119270.728 -18270476.430 10 0 60934 11700.00000 0 -13993037.084 13957158.192 -16136902.861 10 0 60934 12600.00000 0 -15624646.856 14819586.433 -13690136.502 10 0 60934 13500.00000 0 -16908708.394 15649494.861 -10977748.953 10 0 60934 14400.00000 0 -17834042.015 16388002.868 -8052429.903 10 0 60934 15300.00000 0 -18402585.609 16977006.451 -4970963.234 10 0 60934 16200.00000 0 -18629085.703 17361756.565 -1793126.182 10 0 60934 17100.00000 0 -18540265.333 17493310.890 1419467.163 10 0 60934 18000.00000 0 -18173505.102 17330756.019 4604555.712 10 0 60934 18900.00000 0 -17575093.994 16843106.841 7700431.769 10 0 60934 19800.00000 0 -16798124.177 16010803.395 10647129.105 10 0 60934 20700.00000 0 -15900118.668 14826742.271 13387576.161 10 0 60934 21600.00000 0 -14940491.526 13296798.995 15868692.728 10 0 60934 22500.00000 0 -13977947.001 11439818.901 18042409.605 10 0 60934 23400.00000 0 -13067926.309 9287075.915 19866592.331 10 0 60934 24300.00000 0 -12260208.595 6881220.558 21305851.921 10 0 60934 25200.00000 0 -11596766.073 4274759.397 22332227.668 10 0 60934 26100.00000 0 -11109962.831 1528127.438 22925729.307 10 0 60934 27000.00000 0 -10821172.521 -1292568.379 23074728.366 10 0 60934 27900.00000 0 -10739872.998 -4118042.840 22776191.048 10 0 60934 28800.00000 0 -10863256.218 -6878461.558 22035747.730 10 0 60934 29700.00000 0 -11176370.556 -9506097.981 20867596.951 10 0 60934 30600.00000 0 -11652790.546 -11937909.274 19294244.655 10 0 60934 31500.00000 0 -12255787.085 -14117924.791 17346082.453 10 0 60934 32400.00000 0 -12939950.059 -15999348.266 15060811.669 10 0 60934 33300.00000 0 -13653196.087 -17546286.141 12482722.989 10 0 60934 34200.00000 0 -14339077.473 -18735029.646 9661844.566 10 0 60934 35100.00000 0 -14939295.209 -19554836.589 6652974.269 10 0 60934 36000.00000 0 -15396309.662 -20008179.674 3514614.462 10 0 60934 36900.00000 0 -15655937.846 -20110450.564 307830.115 10 0 60934 37800.00000 0 -15669826.206 -19889132.078 -2904947.048 10 0 60934 38700.00000 0 -15397692.762 -19382473.613 -6061144.197 10 0 60934 39600.00000 0 -14809241.954 -18637726.261 -9099277.701 10 0 60934 40500.00000 0 -13885669.435 -17709013.052 -11960162.831 10 0 60934 41400.00000 0 -12620691.474 -16654925.443 -14588077.904 10 0 60934 42300.00000 0 -11021054.062 -15535948.888 -16931858.979 10 0 60934 43200.00000 0 -9106499.098 -14411827.513 -18945902.822 10 0 60934 44100.00000 0 -6909188.220 -13338980.251 -20591058.050 10 0 60934 45000.00000 0 -4472608.014 -12368078.296 -21835386.850 10 0 60934 45900.00000 0 -1850002.240 -11541886.412 -22654782.643 10 0 60934 46800.00000 0 897603.401 -10893459.038 -23033432.169 10 0 60934 47700.00000 0 3703701.417 -10444766.658 -22964113.728 10 0 60934 48600.00000 0 6498831.713 -10205809.399 -22448326.665 10 0 60934 49500.00000 0 9213234.645 -10174253.967 -21496250.506 10 0 60934 50400.00000 0 11779517.850 -10335607.867 -20126535.424 10 0 60934 51300.00000 0 14135226.575 -10663922.170 -18365928.898 10 0 60934 52200.00000 0 16225211.485 -11122991.904 -16248746.461 10 0 60934 53100.00000 0 18003696.622 -11668002.367 -13816197.334 10 0 60934 54000.00000 0 19435962.818 -12247551.079 -11115578.390 10 0 60934 54900.00000 0 20499578.082 -12805959.496 -8199352.318 10 0 60934 55800.00000 0 21185125.310 -13285776.630 -5124128.030 10 0 60934 56700.00000 0 21496398.724 -13630368.878 -1949563.109 10 0 60934 57600.00000 0 21450062.485 -13786486.887 1262790.453 10 0 60934 58500.00000 0 21074787.283 -13706701.391 4450675.006 10 0 60934 59400.00000 0 20409902.324 -13351605.600 7552327.643 10 0 60934 60300.00000 0 19503620.116 -12691691.530 10507669.426 10 0 60934 61200.00000 0 18410909.057 -11708821.342 13259460.834 10 0 60934 62100.00000 0 17191103.199 -10397231.653 15754401.739 10 0 60934 63000.00000 0 15905349.205 -8764028.134 17944155.347 10 0 60934 63900.00000 0 14613997.073 -6829148.801 19786277.093 10 0 60934 64800.00000 0 13374043.232 -4624796.288 21245031.320 10 0 60934 65700.00000 0 12236732.369 -2194361.187 22292080.691 10 0 60934 66600.00000 0 11245417.623 409120.520 22907035.514 10 0 60934 67500.00000 0 10433768.136 3124913.806 23077852.665 10 0 60934 68400.00000 0 9824398.614 5886855.914 22801076.341 10 0 60934 69300.00000 0 9427978.239 8625860.299 22081915.583 10 0 60934 70200.00000 0 9242856.496 11272550.998 20934156.323 10 0 60934 71100.00000 0 9255222.171 13759919.492 19379908.551 10 0 60934 72000.00000 0 9439789.584 16025894.617 17449192.259 10 0 60934 72900.00000 0 9760984.074 18015719.193 15179368.737 10 0 60934 73800.00000 0 10174577.668 19684034.479 12614426.938 10 0 60934 74700.00000 0 10629706.591 20996585.187 9804137.586 10 0 60934 75600.00000 0 11071185.791 21931473.240 6803090.613 10 0 60934 76500.00000 0 11442022.535 22479907.151 3669634.180 10 0 60934 77400.00000 0 11686022.174 22646414.923 464735.990 10 0 60934 78300.00000 0 11750374.736 22448511.126 -2749210.496 10 0 60934 79200.00000 0 11588111.373 21915832.023 -5909610.802 10 0 60934 80100.00000 0 11160324.951 21088775.405 -8954900.082 10 0 60934 81000.00000 0 10438058.945 20016703.111 -11825754.355 10 0 60934 81900.00000 0 9403782.921 18755782.940 -14466257.407 10 0 60934 82800.00000 0 8052390.606 17366562.151 -16824999.343 10 0 60934 83700.00000 0 6391677.045 15911376.067 -18856084.501 10 0 60934 84600.00000 0 4442273.627 14451702.138 -20520028.434 10 0 60934 85500.00000 0 2237042.999 13045571.822 -21784526.286 99